Miscellaneous Local Product
Issued by NWS Hastings, NE

Home | Current Version | Previous Version | Graphics & Text | Print | Product List | Glossary On
Versions: 1 2 3 4 5 6 7 8 9 10 11 12 13 14 15 16 17 18 19 20 21 22 23 24 25 26 27 28 29 30 31 32 33 34 35 36 37 38 39 40 41 42 43 44 45 46 47 48 49 50
000
AXUS43 KGID 030402
MISGRI

GID CWA HOURLY WEATHER ROUNDUP
NATIONAL WEATHER SERVICE HASTINGS NE
1100 PM CDT SAT MAY 02 2015

NOTE: "FAIR" INDICATES FEW OR NO CLOUDS BELOW 12,000 FEET WITH NO
SIGNIFICANT WEATHER AND/OR OBSTRUCTIONS TO VISIBILITY.

...SOUTH CENTRAL NEBRASKA...

CITY           SKY/WX    TMP DP  RH WIND       PRES   REMARKS
GRAND ISLAND   PTCLDY    72  53  51 S16       29.72S
HASTINGS       PTCLDY    72  52  49 S10       29.74R
KEARNEY        PTCLDY    66  46  48 E8        29.74S
ORD            CLEAR     68  46  45 SE14      29.71R
YORK           MOCLDY    72  55  56 S18G25    29.73F
AURORA         MOCLDY    71  54  54 S16G22    29.72S
LEXINGTON      MOCLDY    68  48  48 SW7       29.74S
HOLDREGE       MOCLDY    69  46  43 S8        29.75R
HEBRON         PTCLDY    70  53  54 S14       29.76R

...NEBRASKA PANHANDLE...

CITY           SKY/WX    TMP DP  RH WIND       PRES   REMARKS
CHADRON        MOCLDY    56  42  59 SW12      29.77R
ALLIANCE       CLOUDY    67  40  37 SW17      29.81R
SCOTTSBLUFF    CLOUDY    62  40  44 SW6       29.82S
SIDNEY         CLOUDY    55  46  71 SW9       29.88R

...WESTERN AND NORTH CENTRAL NEBRASKA...

CITY           SKY/WX    TMP DP  RH WIND       PRES   REMARKS
VALENTINE      PTCLDY    61  42  49 CALM      29.71R
AINSWORTH      CLEAR     61  47  60 E7        29.71S
ONEILL         MOCLDY    71  49  45 SE8       29.71R
BROKEN BOW     CLEAR     61  43  51 CALM      29.73R
IMPERIAL       CLOUDY    69  41  36 W7        29.81S
NORTH PLATTE   CLOUDY    55  45  68 NW6       29.77R
MCCOOK         MOCLDY    68  48  48 SW8       29.77R

...EASTERN NEBRASKA...

CITY           SKY/WX    TMP DP  RH WIND       PRES   REMARKS
NORFOLK        CLOUDY    66  52  60 S7        29.71F
SO SIOUX CITY  MOCLDY    64  54  69 SE10      29.75R
TEKAMAH        LGT RAIN  67  58  72 S21       29.75S
COLUMBUS       CLOUDY    63  52  67 S13       29.79F
ALBION         CLOUDY    64  51  62 SE12      29.72S
OMAHA EPPLEY   CLOUDY    69  54  58 S16       29.78R
OFFUTT AFB     CLOUDY    69  54  58 SE18      29.78R
MILLARD        CLOUDY    71  56  60 S12G20    29.79R
LINCOLN        CLOUDY    73  51  46 S17       29.75F
NEBRASKA CITY  CLOUDY    65  50  58 S12       29.82R
BEATRICE       CLOUDY    71  51  50 S15       29.78S
FALLS CITY     MOCLDY    64  53  67 SE8       29.83S

...NORTHERN KANSAS...

CITY           SKY/WX    TMP DP  RH WIND       PRES   REMARKS
GOODLAND       CLOUDY    69  41  36 W17       29.88R
HILL CITY      MOCLDY    73  48  41 S13G21    29.78R
NORTON         CLEAR     64  45  48 W6        29.75S
PHILLIPSBURG   CLEAR     75  50  41 S15       29.76R
SMITH CENTER   CLEAR     72  50  46 S15G21    29.77R
BELOIT         CLEAR     72  52  49 S15G21    29.76R
HAYS           PTCLDY    72  48  43 S21G26    29.79S
RUSSELL        PTCLDY    71  51  49 S18       29.78R
CONCORDIA      PTCLDY    71  55  56 S21       29.78S
SALINA         MOCLDY    72  54  53 S15G25    29.80S
TOPEKA         MOCLDY    68  53  58 S9        29.87F



USA.gov is the U.S. government's official web portal to all federal, state and local government web resources and services.